SCP
0 0 0 0 0 0 0 0 0 0 0 0 0 0 0 0 0 -0 0 0 0 0 0 0 0 0 0 1 1 0 0 0 0 0 0 0 0 0
0 0 0 0 0 0 1 0 0 0 0 0 0 0 0 0 0 0 0 0 0 0 0 0 0 0 0 0 0 0 0 0 0 0 0 0 0 0
0 0 0 0 0 1 0 0 0 0 0 0 0 0 0 -0 0 0 0 0 -0 0 0 0 0 0 0 0 0 0 0 0 0 0 0 0 0 0
0 0 0 0 0 0 0 0 0 0 0 -0 -0 0 -0 0 0 0 0 -0 -0 -0 0 0 0 0 0 0 0 0 0 0 0 0 0 0 0 0
0 0 0 0 0 0 0 0 0 0 0 -0 -0 -0 -0 -0 0 -0 0 0 -0 -0 0 0 0 0 0 0 0 0 0 0 0 0 0 0 0 0
0 0 0 0 0 0 0 0 0 0 0 -0 -0 -0 -0 0 -0 0 0 -0 -0 -0 0 0 0 0 0 0 0 0 0 0 0 0 0 0 0 0
0 0 0 0 0 0 0 0 0 0 -0 -0 -0 -0 -0 0 -0 -0 -0 -0 -0 -0 -0 0 0 0 0 0 0 0 0 0 0 0 0 0 0 0
0 0 0 0 0 0 0 -0 -0 -0 -0 -0 -0 -0 0 0 -0 -0 -0 -0 -0 -0 -0 0 0 0 0 0 0 0 0 0 0 0 0 0 0 0
0 0 0 0 0 0 0 0 -0 -0 -0 0 -0 -0 -0 0 0 -0 -0 -0 -0 -0 0 0 0 0 0 0 0 0 0 0 0 0 0 0 0 0
0 0 0 0 0 0 0 0 0 0 0 0 0 -0 0 0 0 -0 -0 -0 -0 -0 0 0 0 0 0 0 0 0 0 0 0 0 0 0 0 0
0 0 0 0 0 -0 0 0 0 0 0 0 0 0 0 0 0 -0 -0 -0 -0 -0 -0 0 0 0 0 0 0 0 0 0 0 0 0 0 0 0
0 0 0 0 0 -0 0 0 0 0 0 0 0 0 0 0 0 -0 -0 -0 -0 -0 -0 0 0 0 0 0 0 0 0 0 0 0 0 0 0 0
0 0 0 0 -0 -0 -0 0 -0 0 0 0 0 0 0 0 -0 -0 -0 -0 -0 -0 0 0 0 0 0 0 0 0 0 0 0 0 0 0 0 0
0 0 0 -0 -0 -0 0 0 0 0 0 0 0 0 0 -0 -0 -0 -0 -0 -0 -0 -0 0 0 0 0 0 0 0 0 0 0 0 0 0 0 0
0 0 -0 0 0 0 0 0 0 0 0 0 0 -0 0 -0 -0 -0 -0 -0 -0 -0 -0 0 0 0 0 0 0 0 0 0 0 0 0 0 0 0
0 0 0 0 0 0 0 0 0 0 0 -0 -0 0 0 -0 -0 -0 0 -0 -0 -0 -0 0 0 0 0 0 0 0 0 0 0 0 0 0 0 0
0 0 0 0 0 0 0 0 -0 -0 0 0 0 0 0 0 0 0 0 0 -0 -0 0 0 0 0 0 0 0 0 0 0 0 0 0 0 0 0
-0 0 0 0 0 -0 -0 0 0 0 0 0 0 0 0 0 0 0 0 -0 -0 -0 0 0 0 0 0 0 0 0 0 0 0 0 0 0 0 0
-0 0 0 0 -0 -0 0 0 0 0 0 -0 -0 0 0 0 0 0 0 0 -0 0 0 0 0 0 0 0 0 0 0 0 0 0 0 0 0 0
-0 0 0 0 -0 -0 -0 0 0 0 0 -0 -0 0 0 0 0 0 0 0 0 0 0 0 0 0 0 0 0 0 0 0 0 0 0 0 0 0
-0 0 0 0 -0 -0 -0 -0 -0 0 0 0 0 0 0 0 0 0 0 0 0 0 0 0 0 0 0 0 0 0 0 0 0 0 0 0 0 0
-0 -0 0 0 0 -0 -0 -0 -0 0 0 0 0 0 0 0 0 0 0 0 0 0 0 0 0 0 0 0 0 0 0 0 0 0 0 0 0 0
-0 0 0 0 0 -0 -0 -0 -0 0 0 0 0 0 0 0 0 0 0 0 0 0 0 0 0 0 0 0 0 0 0 0 0 0 0 0 0 0
Wind_Speed_500mb
76 75 77 85 83 86 86 85 77 90 101 94 83 77 81 91 93 92 93 115 116 110 97 127 118 106 113 120 139 130 157 144 147 123 127 125 127 119
76 78 82 86 83 88 89 91 86 89 99 81 84 100 94 96 107 96 83 87 108 109 103 116 112 106 113 125 140 134 142 157 141 122 127 125 131 124
75 78 92 87 90 91 89 92 89 91 103 104 103 81 99 100 93 83 89 89 96 113 74 115 124 108 115 118 150 148 180 170 141 137 133 128 135 131
82 76 88 83 87 90 88 88 90 93 92 94 80 92 102 94 85 82 70 70 87 120 97 98 125 110 119 122 135 181 160 148 138 140 133 129 137 136
76 73 78 77 85 84 82 86 84 85 89 85 93 91 96 95 69 68 82 86 90 102 113 54 116 119 123 134 152 157 154 157 155 139 129 128 135 143
71 76 79 77 78 73 77 81 81 83 81 81 86 87 98 80 59 59 61 68 78 98 99 101 93 115 121 127 147 171 170 165 157 142 140 135 141 139
75 76 77 76 74 77 79 85 80 79 81 75 71 81 86 78 53 53 59 56 54 90 84 81 95 120 132 136 166 185 173 162 156 142 139 137 144 143
84 81 74 74 78 76 80 83 84 89 91 86 85 74 75 63 50 49 57 68 71 80 73 69 118 140 152 165 177 177 175 166 161 162 153 151 144 138
78 85 85 82 74 78 76 76 79 82 86 94 95 92 79 72 51 49 54 55 73 83 78 80 113 122 152 166 191 184 173 172 166 157 153 146 141 140
75 83 82 82 79 76 79 84 89 91 86 86 96 103 94 96 69 65 65 60 79 84 81 86 72 129 126 161 195 187 178 171 168 169 154 145 140 138
85 82 82 81 82 78 80 87 88 85 84 82 82 84 77 80 64 51 64 64 73 88 73 80 79 118 128 137 171 178 178 173 160 154 147 145 142 138
91 86 76 78 75 72 77 83 86 89 86 84 78 77 72 80 91 89 82 79 77 75 84 76 72 116 90 124 158 158 146 144 143 142 144 144 140 134
91 94 86 80 80 78 75 81 81 79 76 72 75 71 75 79 70 73 86 79 83 92 87 62 69 118 100 124 130 141 152 145 136 139 144 140 133 134
89 84 87 83 81 75 76 76 74 76 77 80 74 69 71 65 84 86 88 88 94 102 99 87 63 105 107 122 112 129 136 145 147 148 143 137 130 129
72 79 75 72 71 61 58 61 66 71 71 71 76 79 69 77 81 83 78 89 96 105 96 77 68 143 133 141 136 137 134 138 146 147 144 145 142 142
77 74 60 60 44 36 44 44 46 51 62 71 67 72 69 71 70 68 79 86 93 100 85 91 63 131 123 140 142 136 130 114 143 134 146 141 143 151
67 64 59 69 64 54 46 42 45 47 45 58 71 72 73 71 71 71 72 81 91 76 72 85 81 118 127 144 129 133 132 119 129 129 136 132 152 155
67 70 77 67 70 72 68 64 53 46 37 27 49 67 65 70 70 72 67 72 78 75 85 85 106 100 101 112 136 136 128 117 116 126 134 127 128 132
81 81 70 80 71 75 73 71 64 59 46 39 42 45 48 66 71 72 72 68 72 87 90 101 109 93 86 90 98 136 136 116 122 125 140 137 140 142
81 82 83 79 85 78 82 80 74 67 58 44 42 48 57 57 59 62 61 59 77 89 93 107 117 112 114 119 102 138 137 133 146 140 130 120 120 133
80 83 84 84 91 84 93 92 81 78 73 57 42 42 44 48 58 58 55 58 88 90 91 106 134 144 127 97 92 113 124 126 133 136 126 117 119 116
81 83 86 86 89 85 91 87 87 76 80 63 48 35 33 34 43 54 50 76 91 105 103 117 116 121 109 103 96 115 118 117 117 123 125 142 138 98
80 83 88 91 94 89 96 93 91 91 90 72 57 44 32 25 37 48 60 88 96 93 103 100 105 113 105 113 107 107 120 121 121 122 125 135 126 118
Wind_Direction_500mb
282 278 272 271 270 268 263 262 259 272 274 277 271 272 270 265 262 270 273 255 250 246 241 240 236 231 228 222 206 217 209 216 209 191 203 194 190 187
283 279 275 273 271 266 261 261 265 255 270 273 274 270 262 269 265 269 262 259 247 239 246 238 233 225 221 216 206 208 220 209 195 190 193 191 192 190
283 277 275 274 269 266 263 265 258 258 266 273 264 266 264 263 260 258 258 263 247 238 244 237 229 220 218 221 215 217 198 198 189 188 190 191 194 192
287 279 275 274 270 266 265 262 261 263 264 272 275 273 268 274 263 254 255 264 255 241 248 237 220 217 217 216 207 194 195 202 186 187 189 193 195 195
290 285 281 277 272 269 267 264 263 264 266 271 267 269 266 270 257 258 267 273 265 252 239 252 221 220 216 211 204 206 199 189 184 188 188 196 198 198
291 285 282 278 274 273 269 267 266 269 272 270 265 269 265 279 258 267 272 283 276 245 247 248 239 221 216 213 207 192 193 186 185 183 190 196 199 199
295 290 285 280 275 270 270 270 268 269 272 272 268 264 267 273 260 262 261 276 286 249 250 257 225 220 214 207 201 193 187 182 179 184 193 196 199 197
299 295 289 283 277 272 269 266 266 268 268 268 269 270 263 278 263 265 276 288 291 233 252 253 217 205 202 198 196 198 185 182 183 186 189 196 196 195
298 295 290 285 280 278 277 271 268 264 263 265 265 262 265 256 277 268 279 289 280 262 273 287 201 191 195 193 194 188 187 189 186 190 190 191 193 193
302 300 294 289 284 282 280 279 279 276 275 264 258 258 260 257 259 271 271 281 281 272 282 275 237 192 187 186 191 188 185 185 186 188 187 189 192 193
308 302 298 292 283 278 277 279 279 273 277 267 263 253 259 251 249 257 270 278 286 283 275 270 272 176 178 178 180 181 184 184 186 189 188 192 192 193
309 301 296 292 287 282 277 277 280 280 270 271 267 252 255 251 248 252 258 264 276 289 263 268 216 163 162 169 173 180 181 184 187 186 190 195 194 193
309 306 302 297 287 280 275 274 277 280 273 266 262 262 246 251 244 238 248 261 269 267 254 274 182 164 158 163 173 178 181 183 186 191 196 197 197 196
312 311 311 305 292 285 277 274 274 276 276 261 261 255 245 247 248 250 256 259 264 258 269 263 243 169 156 164 167 178 184 188 192 193 196 198 199 202
319 317 318 321 307 278 281 277 275 271 271 253 248 250 245 246 244 246 249 252 260 260 262 261 224 186 173 176 177 180 180 191 193 193 195 198 198 199
326 329 336 336 335 318 303 301 291 282 268 259 254 253 249 252 251 242 245 253 258 264 248 247 246 181 175 178 179 179 185 185 192 197 199 201 200 199
331 349 354 350 348 340 330 321 306 288 283 266 251 249 246 248 246 246 249 255 262 257 241 246 230 186 179 177 176 181 183 189 191 192 199 195 196 194
3 7 357 350 345 344 341 338 332 322 297 262 251 253 252 238 241 249 255 262 256 244 221 221 196 183 176 178 182 178 181 184 188 194 194 196 190 193
17 13 358 350 343 344 342 340 332 329 321 292 268 250 249 253 253 255 261 254 237 218 200 187 179 173 164 169 178 183 180 186 187 187 191 189 192 193
19 14 4 351 349 343 343 341 342 339 333 315 289 269 254 246 254 256 254 244 212 189 181 179 176 177 172 175 175 184 190 187 194 193 193 196 196 200
16 16 12 358 354 349 348 347 351 342 336 326 308 286 268 260 252 253 242 226 193 179 175 176 183 185 183 181 176 180 190 200 197 191 187 185 187 189
17 17 15 4 355 352 349 346 347 339 339 335 329 311 283 265 246 238 227 203 185 183 182 182 182 185 183 182 180 184 187 193 203 200 195 198 192 192
17 16 17 12 5 356 353 351 351 346 349 345 337 324 303 267 222 220 208 195 187 181 180 179 178 180 183 184 183 180 183 189 194 195 200 208 205 207
Wind_Speed_850mb
76 75 77 85 83 86 86 85 77 90 101 94 83 77 81 91 93 92 93 115 116 110 97 127 118 106 113 120 139 130 157 144 147 123 127 125 127 119
76 78 82 86 83 88 89 91 86 89 99 81 84 100 94 96 107 96 83 87 108 109 103 116 112 106 113 125 140 134 142 157 141 122 127 125 131 124
75 78 92 87 90 91 89 92 89 91 103 104 103 81 99 100 93 83 89 89 96 113 74 115 124 108 115 118 150 148 180 170 141 137 133 128 135 131
82 76 88 83 87 90 88 88 90 93 92 94 80 92 102 94 85 82 70 70 87 120 97 98 125 110 119 122 135 181 160 148 138 140 133 129 137 136
76 73 78 77 85 84 82 86 84 85 89 85 93 91 96 95 69 68 82 86 90 102 113 54 116 119 123 134 152 157 154 157 155 139 129 128 135 143
71 76 79 77 78 73 77 81 81 83 81 81 86 87 98 80 59 59 61 68 78 98 99 101 93 115 121 127 147 171 170 165 157 142 140 135 141 139
75 76 77 76 74 77 79 85 80 79 81 75 71 81 86 78 53 53 59 56 54 90 84 81 95 120 132 136 166 185 173 162 156 142 139 137 144 143
84 81 74 74 78 76 80 83 84 89 91 86 85 74 75 63 50 49 57 68 71 80 73 69 118 140 152 165 177 177 175 166 161 162 153 151 144 138
78 85 85 82 74 78 76 76 79 82 86 94 95 92 79 72 51 49 54 55 73 83 78 80 113 122 152 166 191 184 173 172 166 157 153 146 141 140
75 83 82 82 79 76 79 84 89 91 86 86 96 103 94 96 69 65 65 60 79 84 81 86 72 129 126 161 195 187 178 171 168 169 154 145 140 138
85 82 82 81 82 78 80 87 88 85 84 82 82 84 77 80 64 51 64 64 73 88 73 80 79 118 128 137 171 178 178 173 160 154 147 145 142 138
91 86 76 78 75 72 77 83 86 89 86 84 78 77 72 80 91 89 82 79 77 75 84 76 72 116 90 124 158 158 146 144 143 142 144 144 140 134
91 94 86 80 80 78 75 81 81 79 76 72 75 71 75 79 70 73 86 79 83 92 87 62 69 118 100 124 130 141 152 145 136 139 144 140 133 134
89 84 87 83 81 75 76 76 74 76 77 80 74 69 71 65 84 86 88 88 94 102 99 87 63 105 107 122 112 129 136 145 147 148 143 137 130 129
72 79 75 72 71 61 58 61 66 71 71 71 76 79 69 77 81 83 78 89 96 105 96 77 68 143 133 141 136 137 134 138 146 147 144 145 142 142
77 74 60 60 44 36 44 44 46 51 62 71 67 72 69 71 70 68 79 86 93 100 85 91 63 131 123 140 142 136 130 114 143 134 146 141 143 151
67 64 59 69 64 54 46 42 45 47 45 58 71 72 73 71 71 71 72 81 91 76 72 85 81 118 127 144 129 133 132 119 129 129 136 132 152 155
67 70 77 67 70 72 68 64 53 46 37 27 49 67 65 70 70 72 67 72 78 75 85 85 106 100 101 112 136 136 128 117 116 126 134 127 128 132
81 81 70 80 71 75 73 71 64 59 46 39 42 45 48 66 71 72 72 68 72 87 90 101 109 93 86 90 98 136 136 116 122 125 140 137 140 142
81 82 83 79 85 78 82 80 74 67 58 44 42 48 57 57 59 62 61 59 77 89 93 107 117 112 114 119 102 138 137 133 146 140 130 120 120 133
80 83 84 84 91 84 93 92 81 78 73 57 42 42 44 48 58 58 55 58 88 90 91 106 134 144 127 97 92 113 124 126 133 136 126 117 119 116
81 83 86 86 89 85 91 87 87 76 80 63 48 35 33 34 43 54 50 76 91 105 103 117 116 121 109 103 96 115 118 117 117 123 125 142 138 98
80 83 88 91 94 89 96 93 91 91 90 72 57 44 32 25 37 48 60 88 96 93 103 100 105 113 105 113 107 107 120 121 121 122 125 135 126 118
Wind_Direction_850mb
282 278 272 271 270 268 263 262 259 272 274 277 271 272 270 265 262 270 273 255 250 246 241 240 236 231 228 222 206 217 209 216 209 191 203 194 190 187
283 279 275 273 271 266 261 261 265 255 270 273 274 270 262 269 265 269 262 259 247 239 246 238 233 225 221 216 206 208 220 209 195 190 193 191 192 190
283 277 275 274 269 266 263 265 258 258 266 273 264 266 264 263 260 258 258 263 247 238 244 237 229 220 218 221 215 217 198 198 189 188 190 191 194 192
287 279 275 274 270 266 265 262 261 263 264 272 275 273 268 274 263 254 255 264 255 241 248 237 220 217 217 216 207 194 195 202 186 187 189 193 195 195
290 285 281 277 272 269 267 264 263 264 266 271 267 269 266 270 257 258 267 273 265 252 239 252 221 220 216 211 204 206 199 189 184 188 188 196 198 198
291 285 282 278 274 273 269 267 266 269 272 270 265 269 265 279 258 267 272 283 276 245 247 248 239 221 216 213 207 192 193 186 185 183 190 196 199 199
295 290 285 280 275 270 270 270 268 269 272 272 268 264 267 273 260 262 261 276 286 249 250 257 225 220 214 207 201 193 187 182 179 184 193 196 199 197
299 295 289 283 277 272 269 266 266 268 268 268 269 270 263 278 263 265 276 288 291 233 252 253 217 205 202 198 196 198 185 182 183 186 189 196 196 195
298 295 290 285 280 278 277 271 268 264 263 265 265 262 265 256 277 268 279 289 280 262 273 287 201 191 195 193 194 188 187 189 186 190 190 191 193 193
302 300 294 289 284 282 280 279 279 276 275 264 258 258 260 257 259 271 271 281 281 272 282 275 237 192 187 186 191 188 185 185 186 188 187 189 192 193
308 302 298 292 283 278 277 279 279 273 277 267 263 253 259 251 249 257 270 278 286 283 275 270 272 176 178 178 180 181 184 184 186 189 188 192 192 193
309 301 296 292 287 282 277 277 280 280 270 271 267 252 255 251 248 252 258 264 276 289 263 268 216 163 162 169 173 180 181 184 187 186 190 195 194 193
309 306 302 297 287 280 275 274 277 280 273 266 262 262 246 251 244 238 248 261 269 267 254 274 182 164 158 163 173 178 181 183 186 191 196 197 197 196
312 311 311 305 292 285 277 274 274 276 276 261 261 255 245 247 248 250 256 259 264 258 269 263 243 169 156 164 167 178 184 188 192 193 196 198 199 202
319 317 318 321 307 278 281 277 275 271 271 253 248 250 245 246 244 246 249 252 260 260 262 261 224 186 173 176 177 180 180 191 193 193 195 198 198 199
326 329 336 336 335 318 303 301 291 282 268 259 254 253 249 252 251 242 245 253 258 264 248 247 246 181 175 178 179 179 185 185 192 197 199 201 200 199
331 349 354 350 348 340 330 321 306 288 283 266 251 249 246 248 246 246 249 255 262 257 241 246 230 186 179 177 176 181 183 189 191 192 199 195 196 194
3 7 357 350 345 344 341 338 332 322 297 262 251 253 252 238 241 249 255 262 256 244 221 221 196 183 176 178 182 178 181 184 188 194 194 196 190 193
17 13 358 350 343 344 342 340 332 329 321 292 268 250 249 253 253 255 261 254 237 218 200 187 179 173 164 169 178 183 180 186 187 187 191 189 192 193
19 14 4 351 349 343 343 341 342 339 333 315 289 269 254 246 254 256 254 244 212 189 181 179 176 177 172 175 175 184 190 187 194 193 193 196 196 200
16 16 12 358 354 349 348 347 351 342 336 326 308 286 268 260 252 253 242 226 193 179 175 176 183 185 183 181 176 180 190 200 197 191 187 185 187 189
17 17 15 4 355 352 349 346 347 339 339 335 329 311 283 265 246 238 227 203 185 183 182 182 182 185 183 182 180 184 187 193 203 200 195 198 192 192
17 16 17 12 5 356 353 351 351 346 349 345 337 324 303 267 222 220 208 195 187 181 180 179 178 180 183 184 183 180 183 189 194 195 200 208 205 207